Simultaneous Nadir Overpasses (SNOs) Predictions

Prediction of SNOs between LANDSAT-8 and NOAA-19 Satellite Orbit:

Table of predicted SNOs for the next 14.0 days since TLE Epoch: 8/7/2015
Index Date (LANDSAT-8) Time (LANDSAT-8) Lat,Lon (LANDSAT-8) SZA (LANDSAT-8 ) Date (NOAA-19) Time (NOAA-19) Lat,Lon (NOAA-19) SZA (NOAA-19 ) Distance(km) Time Diff (sec)
1 08/07/2015 11:41:14 73.56, 6.86 57.04 08/07/2015 11:40:01 73.62, 6.43 57.10 15.22 73
2 08/07/2015 12:30:45 -73.39, 174.13 123.13 08/07/2015 12:31:01 -73.40, 174.18 123.11 2.39 16
3 08/09/2015 17:15:03 -73.44, 103.17 122.45 08/09/2015 17:14:21 -73.47, 103.24 122.42 3.43 42
4 08/09/2015 18:04:30 73.36, -89.36 57.48 08/09/2015 18:05:17 73.38, -89.30 57.51 3.02 47
5 08/11/2015 22:48:47 73.46,-160.23 58.23 08/11/2015 22:48:37 73.47,-160.30 58.24 2.69 10
6 08/11/2015 23:38:23 -73.03, 6.52 122.20 08/11/2015 23:39:33 -73.02, 7.97 122.20 47.09 70
7 08/14/2015 03:33:05 73.50, 128.79 58.94 08/14/2015 03:31:56 73.51, 128.81 58.95 1.53 69
8 08/14/2015 04:22:34 -73.44, -63.71 121.12 08/14/2015 04:23:00 -73.44, -63.79 121.12 2.39 26
9 08/16/2015 09:06:52 -73.48,-134.71 120.40 08/16/2015 09:06:19 -73.47,-134.66 120.40 1.54 33
10 08/16/2015 09:56:19 73.39, 32.75 59.52 08/16/2015 09:57:14 73.38, 32.82 59.53 2.18 55
11 08/18/2015 13:50:58 -74.13, 155.66 119.03 08/18/2015 13:49:52 -74.19, 152.75 118.98 88.57 66
12 08/18/2015 14:40:36 73.47, -38.15 60.31 08/18/2015 14:40:34 73.48, -38.20 60.33 2.40 2
13 08/18/2015 15:30:19 -72.67, 127.89 120.48 08/18/2015 15:31:24 -72.70, 130.79 120.44 96.19 65
14 08/20/2015 19:24:53 73.54,-109.06 61.11 08/20/2015 19:23:53 73.54,-109.12 61.10 1.87 60
15 08/20/2015 20:14:23 -73.44, 58.34 119.00 08/20/2015 20:14:57 -73.44, 58.34 118.99 0.31 34




NCC Satellite Simultaneous Nadir Overpasses (SNOs) Prediction Service
